TimeEST,TemperatureF,Dew PointF,Humidity,Sea Level PressureIn,VisibilityMPH,Wind Direction,Wind SpeedMPH,Gust SpeedMPH,PrecipitationIn,Events,Conditions,WindDirDegrees,DateUTC
12:10 AM,62.6,53.6,72,29.91,10.0,SSW,19.6,28.8,N/A,,Overcast,210,2012-12-04 05:10:00
12:56 AM,63.0,54.0,72,29.91,10.0,SW,21.9,34.5,N/A,,Overcast,220,2012-12-04 05:56:00
1:56 AM,63.0,55.0,75,29.90,8.0,SW,16.1,28.8,N/A,,Overcast,220,2012-12-04 06:56:00
2:33 AM,62.6,55.4,77,29.91,10.0,SW,18.4,24.2,0.01,,Overcast,220,2012-12-04 07:33:00
2:56 AM,62.1,55.0,78,29.91,10.0,SW,16.1,23.0,0.01,,Overcast,220,2012-12-04 07:56:00
3:56 AM,61.0,54.0,78,29.90,10.0,SSW,11.5,-,N/A,,Overcast,200,2012-12-04 08:56:00
4:56 AM,57.9,54.0,87,29.90,9.0,SSW,9.2,-,0.05,,Overcast,210,2012-12-04 09:56:00
5:56 AM,57.9,54.0,87,29.91,4.0,West,4.6,-,0.02,Rain,Rain,270,2012-12-04 10:56:00
6:04 AM,57.2,55.4,94,29.91,1.8,West,5.8,-,0.04,Rain,Heavy Rain,270,2012-12-04 11:04:00
6:11 AM,57.2,55.4,94,29.91,2.0,SW,6.9,-,0.06,Rain,Rain,230,2012-12-04 11:11:00
6:22 AM,57.2,55.4,94,29.91,3.0,WSW,10.4,-,0.07,Rain,Light Rain,240,2012-12-04 11:22:00
6:28 AM,57.2,55.4,94,29.92,2.5,West,11.5,-,0.09,Rain,Rain,280,2012-12-04 11:28:00
6:53 AM,53.6,51.8,94,29.95,3.0,WNW,8.1,17.3,0.13,Rain,Light Rain,290,2012-12-04 11:53:00
6:56 AM,53.1,52.0,96,29.96,2.5,NW,10.4,-,0.15,Rain,Rain,320,2012-12-04 11:56:00
7:04 AM,51.8,50.0,94,29.96,1.8,NNW,5.8,20.7,0.04,Rain,Rain,330,2012-12-04 12:04:00
7:06 AM,51.8,50.0,94,29.96,2.0,NW,6.9,20.7,0.04,Rain,Rain,320,2012-12-04 12:06:00
7:09 AM,51.8,50.0,94,29.96,3.0,NW,8.1,-,0.04,Rain,Light Rain,320,2012-12-04 12:09:00
7:40 AM,51.8,50.0,94,30.00,2.5,West,10.4,-,0.09,Rain,Heavy Rain,270,2012-12-04 12:40:00
7:56 AM,48.9,48.0,97,29.99,2.5,NW,12.7,18.4,0.15,Rain,Rain,320,2012-12-04 12:56:00
8:11 AM,48.2,48.2,100,29.99,4.0,WNW,5.8,-,0.02,Rain,Light Rain,300,2012-12-04 13:11:00
8:46 AM,48.2,46.4,93,30.00,4.0,WNW,3.5,-,0.04,Rain,Light Rain,300,2012-12-04 13:46:00
8:56 AM,48.0,45.0,89,30.01,4.0,NW,5.8,-,0.04,,Overcast,310,2012-12-04 13:56:00
9:56 AM,46.9,44.1,90,30.01,6.0,Calm,Calm,-,0.01,Rain,Light Rain,0,2012-12-04 14:56:00
10:56 AM,46.9,44.1,90,30.03,7.0,SW,4.6,-,0.01,Rain,Light Rain,230,2012-12-04 15:56:00
11:56 AM,48.0,43.0,83,30.01,10.0,WSW,5.8,-,0.01,,Overcast,240,2012-12-04 16:56:00
12:56 PM,48.0,42.1,80,29.99,10.0,West,8.1,-,N/A,,Overcast,270,2012-12-04 17:56:00
1:56 PM,48.0,41.0,77,30.00,10.0,West,8.1,-,N/A,,Partly Cloudy,280,2012-12-04 18:56:00
2:56 PM,48.9,39.0,69,30.00,10.0,West,8.1,-,N/A,,Mostly Cloudy,270,2012-12-04 19:56:00
3:56 PM,48.9,39.0,69,30.02,10.0,West,6.9,-,N/A,,Clear,260,2012-12-04 20:56:00
4:56 PM,46.9,36.0,66,30.04,10.0,West,5.8,-,N/A,,Clear,260,2012-12-04 21:56:00
5:56 PM,46.9,32.0,56,30.06,10.0,West,9.2,-,N/A,,Clear,270,2012-12-04 22:56:00
6:56 PM,45.0,30.9,58,30.07,10.0,West,8.1,-,N/A,,Clear,270,2012-12-04 23:56:00
7:56 PM,43.0,30.9,62,30.09,10.0,WSW,6.9,-,N/A,,Clear,250,2012-12-05 00:56:00
8:56 PM,43.0,32.0,65,30.09,10.0,West,6.9,-,N/A,,Clear,270,2012-12-05 01:56:00
9:56 PM,42.1,33.1,70,30.11,10.0,West,8.1,-,N/A,,Clear,280,2012-12-05 02:56:00
10:56 PM,39.9,32.0,73,30.13,10.0,WNW,6.9,-,N/A,,Clear,290,2012-12-05 03:56:00
11:56 PM,39.0,28.9,67,30.16,10.0,NW,8.1,-,N/A,,Clear,310,2012-12-05 04:56:00